Home > Time Zones > World Clock > Weather > China > Sian > Past weeks

Flag for China Weather past 2 weeks in Sian, Shaanxi, China

Now
28 °F

Light snow. Mostly cloudy.


Feels Like: 22 °F
Forecast: 23 / 40 °F
Wind: 6 mph from Southwest

Location: Xian/Xianyang

Current Time: Jan 31, 2015 at 5:02:58 AM

Latest Report: Jan 31, 2015 at 4:00 AM


Visibility: 4 mi

Pressure: 30.57 "Hg

Humidity: 80%

Dew point: 23 °F

Location of SianLocation

Historic Weather in Sian — Graph

°F

Sian temperature yesterday

Maximum temperature yesterday: 34 °F (at 3:00 PM)
Minimum temperature yesterday: 21 °F (at 1:00 AM)
Average temperature yesterday: 28 °F

Past Weeks' High & Low Weather Summary

 TemperatureHumidityPressure
High59 °F (Jan 20, 3:00 PM)93% (Jan 25, 2:00 AM)30.57 "Hg (Jan 25, 2:00 AM)
Low18 °F (Jan 19, 3:00 AM)14% (Jan 20, 3:00 PM)29.89 "Hg (Jan 23, 3:00 PM)
Average33 °F63%30.29 "Hg
* Reported Jan 16 4:00 AM — Jan 31 4:00 AM, Sian, Weather by CustomWeather, © 2014

Note: Actual official high and low records may vary slightly from our data, if they occured in-between our weather recording intervals... More about our weather records

Advertising

Sian weather history for previous 24 hours

 ConditionsComfort  
Time TempWeatherWind HumidityBarometerVisibility
4:00 AM
Jan 31
28 °FLight snow. Mostly cloudy.6 mph80%30.57 "Hg4 mi
3:00 AM28 °FLight snow. Mostly cloudy.6 mph80%30.57 "Hg4 mi
2:00 AM28 °FPassing clouds.1 mph80%30.57 "Hg4 mi
1:00 AM27 °FPassing clouds.1 mph86%30.54 "Hg4 mi
12:00 AM27 °FPassing clouds.1 mph80%30.57 "Hg5 mi
11:00 PM
Jan 30
28 °FPassing clouds.1 mph74%30.54 "Hg5 mi
10:00 PM28 °FPassing clouds.3 mph80%30.57 "Hg5 mi
9:00 PM28 °FClear.6 mph74%30.57 "Hg5 mi
8:00 PM28 °FClear.3 mph64%30.54 "Hg5 mi
7:00 PM30 °FSunny.3 mph59%30.54 "Hg10 mi
6:00 PM30 °FSunny.6 mph51%30.51 "Hg10 mi
5:00 PM32 °FPassing clouds.8 mph44%30.48 "HgN/A
4:00 PM32 °FSunny.10 mph40%30.45 "Hg10 mi
3:00 PM34 °FPassing clouds.10 mph41%30.45 "HgN/A
2:00 PM32 °FPassing clouds.10 mph44%30.48 "HgN/A
1:00 PM32 °FSunny.10 mph51%30.51 "Hg10 mi
12:00 PM32 °FClear.10 mph51%30.54 "Hg5 mi
11:00 AM30 °FClear.8 mph55%30.57 "Hg5 mi
10:00 AM28 °FClear.8 mph59%30.57 "Hg4 mi
9:00 AM27 °FHaze.10 mph69%30.54 "Hg3 mi
8:00 AM25 °FIce fog.6 mph74%30.51 "Hg2 mi
7:00 AM25 °FIce fog.3 mph80%30.51 "Hg2 mi
6:00 AM23 °FIce fog.3 mph80%30.48 "Hg2 mi
5:00 AM25 °FIce fog.3 mph80%30.45 "Hg2 mi
Weather by CustomWeather, © 2014

See weather overviewHow to use our weather pages